Regional Weather Roundup
Issued by NWS

Home | Current Version | Previous Version | Graphics & Text | Print | Product List | Glossary On
Versions: 1 2 3 4 5 6 7 8 9 10 11 12 13 14 15 16 17 18 19 20 21 22 23 24 25 26 27 28 29 30 31 32 33 34 35 36 37 38 39 40 41 42 43 44 45 46 47 48 49 50
000
ASUS43 KOAX 010810
RWRNE

WEATHER ROUNDUP FOR NEBRASKA
NATIONAL WEATHER SERVICE OMAHA NE
200 AM CST SUN FEB 01 2015

NOTES: SATELLITE DATA IS BEING USED TO AUGMENT CLOUD COVER ABOVE
       12000 FEET.
       "FAIR" INDICATES FEW OR NO CLOUDS BELOW 12,000 FEET WITH NO
       SIGNIFICANT WEATHER AND/OR OBSTRUCTIONS TO VISIBILITY.

  * THESE STATIONS DO NOT REPORT WEATHER SUCH AS RAIN...SNOW OR FOG.

NEZ001>004-019>022-054>056-010900-
NEBRASKA PANHANDLE

CITY           SKY/WX    TMP DP  RH WIND       PRES   REMARKS
SCOTTSBLUFF    CLOUDY    23  20  88 N9        30.07R WCI  13
ALLIANCE       LGT SNOW  17  14  88 N17       30.05R FOG     WCI   1
CHADRON        LGT SNOW  14  10  84 NE12      30.15R FOG     WCI   0
KIMBALL        CLOUDY    24  22  96 N15G21    29.98R WCI  11
SIDNEY         LGT SNOW  20  17  88 N20       29.99S FOG     WCI   4
$$

NEZ057>060-069>072-079>082-010900-
SOUTHWEST NEBRASKA

CITY           SKY/WX    TMP DP  RH WIND       PRES   REMARKS
NORTH PLATTE   CLOUDY    16  12  84 N20G32    29.99R FOG     WCI  -1
IMPERIAL       MIX PCPN  19  13  77 N26G33    29.99R WCI   1
LEXINGTON      LGT SNOW  21  18  88 N24G36    29.92R WCI   4
MCCOOK         LGT SNOW  22  17  81 N21G31    29.95R WCI   6
OGALLALA       CLOUDY    18  14  84 N15       30.03R WCI   3
$$

NEZ005>010-023>029-035>040-094-010900-
NORTH CENTRAL NEBRASKA

CITY           SKY/WX    TMP DP  RH WIND       PRES   REMARKS
VALENTINE      LGT SNOW   9   4  80 N20G30    30.12S VSB 3/4 WCI -10
AINSWORTH      LGT SNOW   9   6  86 N24G33    30.07S VSB 1   WCI -11
BROKEN BOW     LGT SNOW  18  14  84 N23G33    29.95R VSB 1   WCI   0
O`NEILL        LGT SNOW  14  12  90 N25G33    30.02R WCI  -5
ORD            LGT SNOW  18  13  80 N25G31    29.95R WCI   0
THEDFORD       LGT SNOW  13  10  87 N22G30    30.03R WCI  -6
$$

NEZ041-046>049-061>064-073>077-083>087-010900-
SOUTH CENTRAL NEBRASKA

CITY           SKY/WX    TMP DP  RH WIND       PRES   REMARKS
GRAND ISLAND   LGT SNOW  26  23  88 N24       29.86S VSB 1   WCI  11
AURORA         LGT SNOW  28  28 100 N18       29.83S WCI  16
HASTINGS       LGT SNOW  26  23  88 N22G31    29.83R FOG     WCI  12
HEBRON         LGT SNOW  32  31  96 N6        29.78F WCI  26
HOLDREGE       LGT SNOW  23  19  87 N23G29    29.89R WCI   7
KEARNEY *      CLOUDY    23  19  86 N25G31    29.88R WCI   7
YORK           LGT SNOW  32  32 100 N14       29.82R WCI  22
$$

NEZ011>018-030>034-042>045-010900-
NORTHEAST NEBRASKA

CITY           SKY/WX    TMP DP  RH WIND       PRES   REMARKS
NORFOLK        LGT SNOW  26  23  88 N22G30    29.89S VSB 1   WCI  12
ALBION         LGT SNOW  25  21  85 N18G26    29.90R WCI  11
BLAIR          LGT SNOW  33  32  96 N7        29.81F WCI  27
FREMONT        LGT SNOW  33  33  99 N5        29.84F WCI  29
TEKAMAH        LGT SNOW  33  32  96 N14       29.86F FOG     WCI  23
WAYNE          LGT SNOW  26  24  91 N18G25    29.91S WCI  13
$$

NEZ050>053-065>068-078-088>093-010900-
SOUTHEAST NEBRASKA

CITY           SKY/WX    TMP DP  RH WIND       PRES   REMARKS
LINCOLN        LGT SNOW  32  31  96 NE8       29.82S FOG     WCI  25
OMAHA EPPLEY   LGT SNOW  33  32  96 NE3       29.83F VSB 3/4
BEATRICE       LGT SNOW  32  32 100 CALM      29.77F
FALLS CITY     LGT SNOW  32  32 100 E3        29.78F FOG
NEBRASKA CITY  LGT SNOW  32  32 100 E3        29.80S
PLATTSMOUTH    LGT SNOW  32  31  96 NE5       29.80F WCI  27
$$

NEZ044-045-051>053-067-010900-
OMAHA AREA

CITY           SKY/WX    TMP DP  RH WIND       PRES   REMARKS
OMAHA EPPLEY   LGT SNOW  33  32  96 NE3       29.83F VSB 3/4
BLAIR          LGT SNOW  33  32  96 N7        29.81F WCI  27
FREMONT        LGT SNOW  33  33  99 N5        29.84F WCI  29
MILLARD        LGT SNOW  33  32  96 CALM      29.82F
OFFUTT AFB     LGT SNOW  32  32  98 NE5       29.81F FOG     WCI  28
PLATTSMOUTH    LGT SNOW  32  31  96 NE5       29.80F WCI  27
WAHOO          LGT SNOW  32  31  95 NE8       29.82F WCI  25
$$


USA.gov is the U.S. government's official web portal to all federal, state and local government web resources and services.